www.pogodaiklimat.ru

Погода и климат >> Архив погоды >> Австралия >> Rowley Shoals


ПОГОДА в Rowley Shoals

  • Прогноз погоды в Rowley Shoals
  • Монитор погоды в Rowley Shoals
  • Климат города

АРХИВ ПОГОДЫ в Rowley Shoals

Время (UTC), дата Ветер
(напр.,м/с)
 
Видим.   Явления Облачность Т
(С)
Тd
(С)
f
(%)
Тe
(С)
Тes
(С)
Комфортность P
(гПа)
Po
(гПа)
Тmin
(С)
Tmax
(С)
R
(мм)
R24
(мм)
S
(см)
10 16.06 В 7 н/о н/о +26.1 +22 +22 комфорт 1015.0 1014.1
11 16.06 В 7 н/о н/о +26.3 +22 +22 комфорт 1015.6 1014.7
12 16.06 В 6 н/о н/о +26.1 +22 +22 комфорт 1016.2 1015.3
13 16.06 ЮВ 6 н/о н/о +26.1 +22 +22 комфорт 1016.4 1015.5
14 16.06 ЮВ 5 н/о н/о +26.0 +22 +22 комфорт 1016.7 1015.8
15 16.06 ЮВ 5 н/о н/о +26.1 +22 +22 комфорт 1016.5 1015.6
16 16.06 ЮВ 6 н/о н/о +25.9 +22 +22 комфорт 1016.1 1015.2
17 16.06 ЮВ 6 н/о н/о +26.7 +22 +22 комфорт 1015.7 1014.8
18 16.06 ЮВ 7 н/о н/о +26.6 +22 +22 комфорт 1015.4 1014.5
19 16.06 ЮВ 8 н/о н/о +26.8 +22 +22 комфорт 1014.9 1014.0
20 16.06 ЮВ 9 н/о н/о +26.9 +22 +22 комфорт 1014.7 1013.8
21 16.06 В 9 н/о н/о +26.8 +22 +22 комфорт 1014.8 1013.9
22 16.06 В 9 н/о н/о +26.9 +22 +22 комфорт 1015.1 1014.2
23 16.06 В 8 н/о н/о +27.1 +22 +22 комфорт 1015.8 1014.9
00 17.06 В 8 н/о н/о +27.2 +22 +22 комфорт 1016.5 1015.6
01 17.06 В 8 н/о н/о +27.4 +23 +23 комфорт 1016.4 1015.5
02 17.06 В 9 н/о н/о +27.2 +22 +22 комфорт 1016.1 1015.2
03 17.06 В 9 н/о н/о +27.1 +22 +22 комфорт 1015.9 1015.0
04 17.06 В 9 н/о н/о +27.1 +22 +22 комфорт 1015.3 1014.4
05 17.06 В 9 н/о н/о +27.0 +22 +22 комфорт 1014.4 1013.5
06 17.06 В 9 н/о н/о +26.8 +22 +22 комфорт 1014.1 1013.2
07 17.06 В 8 н/о н/о +26.8 +22 +22 комфорт 1014.1 1013.2
08 17.06 В 8 н/о н/о +26.6 +22 +22 комфорт 1014.2 1013.3
09 17.06 В 9 н/о н/о +26.5 +22 +22 комфорт 1014.6 1013.7
10 17.06 В 9 н/о н/о +26.4 +22 +22 комфорт 1015.1 1014.2
11 17.06 В 9 н/о н/о +26.7 +22 +22 комфорт 1015.9 1015.0
12 17.06 В 9 н/о н/о +26.8 +22 +22 комфорт 1016.3 1015.4
13 17.06 В 8 н/о н/о +27.0 +22 +22 комфорт 1016.5 1015.6
14 17.06 В 8 н/о н/о +26.7 +22 +22 комфорт 1016.4 1015.5
15 17.06 В 7 н/о н/о +26.4 +22 +22 комфорт 1016.1 1015.2
16 17.06 В 7 н/о н/о +26.3 +22 +22 комфорт 1016.0 1015.1
17 17.06 В 7 н/о н/о +26.8 +22 +22 комфорт 1015.6 1014.7
18 17.06 В 7 н/о н/о +26.7 +22 +22 комфорт 1015.0 1014.1
19 17.06 В 7 н/о н/о +27.0 +22 +22 комфорт 1014.5 1013.6
20 17.06 ЮВ 8 н/о н/о +27.0 +22 +22 комфорт 1014.4 1013.5
21 17.06 В 8 н/о н/о +26.9 +22 +22 комфорт 1014.4 1013.5
22 17.06 В 8 н/о н/о +26.7 +22 +22 комфорт 1014.9 1014.0
23 17.06 В 9 н/о н/о +27.0 +22 +22 комфорт 1015.2 1014.3
00 18.06 В 11 н/о н/о +26.8 +22 +22 комфорт 1015.6 1014.7
01 18.06 В 11 н/о н/о +26.7 +22 +22 комфорт 1015.7 1014.8
02 18.06 В 10 н/о н/о +26.9 +22 +22 комфорт 1015.3 1014.4
03 18.06 В 11 н/о н/о +26.8 +22 +22 комфорт 1014.7 1013.8
04 18.06 В 10 н/о н/о +26.4 +22 +22 комфорт 1014.2 1013.3
05 18.06 В 11 н/о н/о +26.6 +22 +22 комфорт 1013.1 1012.2
06 18.06 В 11 н/о н/о +26.4 +22 +22 комфорт 1012.9 1012.0
07 18.06 В 11 н/о н/о +26.6 +22 +22 комфорт 1012.7 1011.8
08 18.06 В 10 н/о н/о +26.6 +22 +22 комфорт 1013.0 1012.1
09 18.06 В 10 н/о н/о +26.6 +22 +22 комфорт 1013.7 1012.8
10 18.06 В 9 н/о н/о +26.5 +22 +22 комфорт 1014.5 1013.6
11 18.06 В 9 н/о н/о +26.3 +22 +22 комфорт 1015.1 1014.2
12 18.06 В 8 н/о н/о +26.4 +22 +22 комфорт 1015.8 1014.9
13 18.06 В 7 н/о н/о +26.7 +22 +22 комфорт 1016.2 1015.3
14 18.06 В 6 н/о н/о +26.8 +22 +22 комфорт 1016.3 1015.4
15 18.06 ЮВ 6 н/о н/о +26.4 +22 +22 комфорт 1015.9 1015.0
16 18.06 В 6 н/о н/о +26.4 +22 +22 комфорт 1015.6 1014.7
17 18.06 В 6 н/о н/о +27.0 +22 +22 комфорт 1015.5 1014.6
18 18.06 В 9 н/о н/о +26.7 +22 +22 комфорт 1015.0 1014.1
19 18.06 В 9 н/о н/о +26.9 +22 +22 комфорт 1014.8 1013.9
20 18.06 В 10 н/о н/о +26.8 +22 +22 комфорт 1014.8 1013.9
21 18.06 В 10 н/о н/о +26.9 +22 +22 комфорт 1014.8 1013.9
22 18.06 В 10 н/о н/о +26.8 +22 +22 комфорт 1015.5 1014.6
23 18.06 В 10 н/о н/о +26.8 +22 +22 комфорт 1016.0 1015.1
00 19.06 В 10 н/о н/о +26.5 +22 +22 комфорт 1016.4 1015.5
01 19.06 В 9 н/о н/о +26.4 +22 +22 комфорт 1016.7 1015.8
02 19.06 В 9 н/о н/о +26.3 +22 +22 комфорт 1016.4 1015.5
03 19.06 В 9 н/о н/о +26.1 +22 +22 комфорт 1016.1 1015.2
04 19.06 В 9 н/о н/о +26.2 +22 +22 комфорт 1015.3 1014.4
05 19.06 В 8 н/о н/о +26.1 +22 +22 комфорт 1014.4 1013.5
06 19.06 ЮВ 8 н/о н/о +26.0 +22 +22 комфорт 1013.9 1013.0
07 19.06 ЮВ 8 н/о н/о +25.8 +21 +21 комфорт 1013.5 1012.6
08 19.06 ЮВ 8 н/о н/о +25.5 +21 +21 комфорт 1013.7 1012.8
09 19.06 ЮВ 8 н/о н/о +25.7 +21 +21 комфорт 1013.8 1012.9
10 19.06 ЮВ 8 н/о н/о +25.3 +21 +21 комфорт 1014.4 1013.5
11 19.06 ЮВ 8 н/о н/о +25.5 +21 +21 комфорт 1014.9 1014.0
12 19.06 ЮВ 7 н/о н/о +25.2 +21 +21 комфорт 1015.5 1014.6
13 19.06 ЮВ 7 н/о н/о +25.4 +21 +21 комфорт 1015.6 1014.7
14 19.06 ЮВ 7 н/о н/о +25.8 +21 +21 комфорт 1015.7 1014.8
15 19.06 ЮВ 7 н/о н/о +25.8 +21 +21 комфорт 1015.5 1014.6
16 19.06 ЮВ 6 н/о н/о +25.7 +21 +21 комфорт 1015.3 1014.4
17 19.06 ЮВ 6 н/о н/о +26.0 +22 +22 комфорт 1015.0 1014.1
18 19.06 ЮВ 7 н/о н/о +26.2 +22 +22 комфорт 1014.3 1013.4
19 19.06 ЮВ 7 н/о н/о +26.3 +22 +22 комфорт 1014.1 1013.2
20 19.06 ЮВ 8 н/о н/о +26.6 +22 +22 комфорт 1013.7 1012.8
21 19.06 ЮВ 8 н/о н/о +26.3 +22 +22 комфорт 1013.6 1012.7
22 19.06 ЮВ 8 н/о н/о +26.2 +22 +22 комфорт 1013.9 1013.0
23 19.06 В 8 н/о н/о +26.2 +22 +22 комфорт 1014.3 1013.4
00 20.06 В 8 н/о н/о +26.7 +22 +22 комфорт 1014.6 1013.7
01 20.06 В 8 н/о н/о +26.7 +22 +22 комфорт 1015.1 1014.2
02 20.06 В 7 н/о н/о +26.5 +22 +22 комфорт 1015.2 1014.3
03 20.06 В 7 н/о н/о +26.5 +22 +22 комфорт 1015.0 1014.1
04 20.06 В 8 н/о н/о +26.6 +22 +22 комфорт 1014.0 1013.1
05 20.06 В 7 н/о н/о +26.4 +22 +22 комфорт 1013.2 1012.3
06 20.06 В 6 н/о н/о +26.9 +22 +22 комфорт 1012.9 1012.0
07 20.06 В 6 н/о н/о +26.5 +22 +22 комфорт 1013.0 1012.1
08 20.06 В 6 н/о н/о +26.7 +22 +22 комфорт 1013.2 1012.3
09 20.06 В 5 н/о н/о +26.4 +22 +22 комфорт 1013.8 1012.9
10 20.06 В 6 н/о н/о +26.3 +22 +22 комфорт 1014.2 1013.3
11 20.06 В 5 н/о н/о +26.2 +22 +22 комфорт 1014.8 1013.9
12 20.06 В 5 н/о н/о +26.0 +22 +22 комфорт 1015.5 1014.6
13 20.06 В 4 н/о н/о +26.0 +22 +22 комфорт 1015.8 1014.9
14 20.06 В 4 н/о н/о +25.9 +22 +22 комфорт 1015.8 1014.9
15 20.06 ЮВ 3 н/о н/о +25.8 +21 +21 комфорт 1015.5 1014.6
16 20.06 ЮВ 3 н/о н/о +25.6 +21 +21 комфорт 1015.1 1014.2
17 20.06 ЮВ 3 н/о н/о +25.6 +21 +21 комфорт 1014.8 1013.9
18 20.06 ЮВ 3 н/о н/о +25.4 +21 +21 комфорт 1014.4 1013.5
19 20.06 В 3 н/о н/о +25.2 +21 +21 комфорт 1013.7 1012.8
20 20.06 ЮВ 4 н/о н/о +25.4 +21 +21 комфорт 1013.8 1012.9
21 20.06 ЮВ 5 н/о н/о +25.3 +21 +21 комфорт 1014.0 1013.1
22 20.06 ЮВ 5 н/о н/о +25.2 +21 +21 комфорт 1014.3 1013.4
23 20.06 ЮВ 5 н/о н/о +25.5 +21 +21 комфорт 1015.0 1014.1
00 21.06 ЮВ 5 н/о н/о +25.8 +21 +21 комфорт 1015.5 1014.6
01 21.06 ЮВ 5 н/о н/о +25.8 +21 +21 комфорт 1015.7 1014.8
02 21.06 ЮВ 5 н/о н/о +25.9 +22 +22 комфорт 1015.3 1014.4
03 21.06 ЮВ 5 н/о н/о +26.1 +22 +22 комфорт 1014.8 1013.9
04 21.06 ЮВ 5 н/о н/о +26.0 +22 +22 комфорт 1014.3 1013.4
05 21.06 ЮВ 5 н/о н/о +26.4 +22 +22 комфорт 1013.7 1012.8
06 21.06 ЮВ 4 н/о н/о +26.1 +22 +22 комфорт 1013.4 1012.5
07 21.06 ЮВ 4 н/о н/о +26.0 +22 +22 комфорт 1013.3 1012.4
08 21.06 ЮВ 4 н/о н/о +26.0 +22 +22 комфорт 1013.6 1012.7
09 21.06 ЮВ 4 н/о н/о +25.8 +21 +21 комфорт 1013.8 1012.9
10 21.06 0 н/о 1014.2 1013.3
11 21.06 0 н/о 1014.9 1014.0
12 21.06 0 н/о 1015.3 1014.4
13 21.06 0 н/о 1016.0 1015.1
14 21.06 0 н/о 1015.9 1015.0
15 21.06 0 н/о 1015.7 1014.8
16 21.06 0 н/о 1015.6 1014.7
17 21.06 0 н/о 1015.4 1014.5
18 21.06 0 н/о 1014.8 1013.9
19 21.06 0 н/о 1014.4 1013.5
20 21.06 0 н/о 1014.2 1013.3
21 21.06 0 н/о 1014.4 1013.5
22 21.06 0 н/о 1014.8 1013.9
23 21.06 0 н/о 1015.3 1014.4
00 22.06 0 н/о 1015.9 1015.0
01 22.06 0 н/о 1016.3 1015.4
02 22.06 0 н/о 1016.0 1015.1
03 22.06 0 н/о 1015.6 1014.7
04 22.06 0 н/о 1014.8 1013.9
05 22.06 0 н/о 1014.2 1013.3
06 22.06 0 н/о 1013.7 1012.8
07 22.06 0 н/о 1013.5 1012.6
08 22.06 0 н/о 1013.4 1012.5
09 22.06 0 н/о 1013.5 1012.6
10 22.06 0 н/о 1014.1 1013.2
11 22.06 0 н/о 1014.7 1013.8
12 22.06 0 н/о 1015.0 1014.1
13 22.06 0 н/о 1015.7 1014.8
14 22.06 0 н/о 1016.0 1015.1
15 22.06 0 н/о 1016.2 1015.3
16 22.06 0 н/о 1015.8 1014.9
17 22.06 0 н/о 1015.2 1014.3
18 22.06 0 н/о 1015.0 1014.1
19 22.06 0 н/о 1014.7 1013.8
20 22.06 0 н/о 1014.4 1013.5
21 22.06 0 н/о 1014.1 1013.2
22 22.06 0 н/о 1014.3 1013.4
23 22.06 0 н/о 1014.4 1013.5
00 23.06 0 н/о 1014.7 1013.8
01 23.06 0 н/о 1015.0 1014.1
02 23.06 0 н/о 1015.0 1014.1
03 23.06 0 н/о 1014.6 1013.7
04 23.06 0 н/о 1013.9 1013.0
05 23.06 0 н/о 1012.8 1011.9
06 23.06 0 н/о 1012.1 1011.2
07 23.06 0 н/о 1011.6 1010.7
08 23.06 0 н/о 1011.5 1010.6
09 23.06 0 н/о 1011.9 1011.0

 

Местоположение метеостанции Rowley Shoals (Западная Австралия, Австралия): широта -17.53 долгота 118.95 высота над уровнем моря 8 м.

В архиве по умолчанию представлена погода в Rowley Shoals за последнюю неделю. Архивные данные за месяц целиком и за предыдущие месяцы, начиная с января 2011 года, Вы можете получить, выбрав интересующий диапазон дат из раскрывающегося списка и нажав кнопку "Ввод!".

Внимание! Время в таблицах - всемирное. Для получения местного времени необходимо прибавить поправку, которая в Rowley Shoals равна 8 ч.

Смотрите также архив погоды в соседних городах и на ближайших метеорологических станциях:

Погода в Mandora (Западная Австралия, Австралия) (316 км)
Погода в Port Hedland Apardoo (Западная Австралия, Австралия) (317 км)
Погода в Broome Airport (Западная Австралия, Австралия) (351 км)
Погода в West Roebuck (Западная Австралия, Австралия) (359 км)
Погода в Roebourne Aero (Западная Австралия, Австралия) (405 км)
Погода в Marble Bar (Западная Австралия, Австралия) (415 км)
Погода в Karratha Aero (Западная Австралия, Австралия) (422 км)
Погода в Varanus Island (Западная Австралия, Австралия) (497 км)
Погода в Derby Aero (Северная территория, Австралия) (500 км)
Погода в Adele Island (Западная Австралия, Австралия) (501 км)

Пояснения к столбцам:

Ветер - указаны скорость ветра в м/с - средняя за 10 мин, порывы в срок и между сроками (в фигурных скобках) и направление, откуда дует ветер: С - северный, СВ - северо-восточный, В - восточный, ЮВ - юго-восточный, Ю - южный, ЮЗ - юго-западный, З - западный, СЗ - северо-западный.
Видимость - горизонтальная дальность видимости в метрах или километрах. При видимости от 1 до 10 км при отсутствии осадков обычно наблюдается дымка, при ухудшении видимости до 1 км и менее - туман. В сухую погоду видимость может ухудшаться дымом, пылью или мглою.
Явления - указаны атмосферные явления, наблюдавшиеся в срок или в последний час перед сроком; фигурными скобками обозначены явления, наблюдавшиеся между сроками (за 1-3 часа до срока); квадратными скобками обозначены град или гололедные отложения с указанием их диаметра в мм.
Облачность - указаны через наклонную черту общая и нижняя облачность в баллах и высота нижней границы облаков в метрах; квадратными скобками обозначены формы облаков: Ci - перистые, Cs - перисто-слоистые, Cc - перисто-кучевые, Ac - высококучевые, As - высокослоистые, Sc - слоисто-кучевые, Ns - слоисто-дождевые, Cu - кучевые, Cb - кучево-дождевые. Подробнее классификацию облаков см. в Атласе облаков (PDF).
T - Температура воздуха - температура, измеренная на высоте 2 м над землей.
Td - Температура точки росы - температура, при понижении до которой содержащийся в воздухе водяной пар достигнет насыщения.
f - Относительная влажность воздуха - влажноcть воздуха, измеренная на высоте 2 м над землей.
Te - Эффективная температура - температура, которую ощущает одетый по сезону человек в тени. Характеристика душности погоды. При расчете учитывается влияние влажности воздуха и скорости ветра на теплоощущения человека.
Tes - Эффективная температура на солнце - температура, которую ощущает человек, с поправкой на солнечный нагрев. Характеристика знойности погоды. Зависит от высоты солнца над горизонтом, облачности и скорости ветра. Ночью, в пасмурную погоду, а также при ветре 12 м/с и более поправка равна нулю.
P - Атмосферное давление - приведенное к уровню моря атмосферное давление.
Po - Атмосферное давление - измеренное на уровне метеостанции атмосферное давление.
Tmin - Минимальная температура - минимум температуры воздуха на высоте 2 м над землей.
Tmax - Максимальная температура - максимум температуры воздуха на высоте 2 м над землей.
R - Количество осадков - Количество выпавших осадков за период времени, мм. При наведении курсора мыши на число - период времени, за который выпало указанное количество осадков.
R24 - Количество осадков - Количество выпавших осадков за 24 часа, мм.
S - Снежный покров - Высота снежного покрова, см. При наведении курсора мыши на число - состояние снежного покрова и степень покрытия местности в баллах.